Terminal Aerodrome Forecast
Issued by NWS Austin/San Antonio, TX

Home | Current Version | Previous Version | Text Only | Print | Product List | Glossary On
Versions: 1 2 3 4 5 6 7 8 9 10 11 12 13 14 15 16 17 18 19 20 21 22 23 24 25 26
636
FTUS44 KEWX 300520
TAFAUS
TAF
KAUS 300520Z 3006/3112 00000KT P6SM FEW020
     FM300900 04003KT P6SM BKN015
     FM301600 08007KT P6SM SCT050 SCT250=

USA.gov is the U.S. government's official web portal to all federal, state and local government web resources and services.